Location: Boca do Mato
(22.9085°S, 43.2930°W)
Time: 03:37:16
(UTC+00:00)

Cosmos 1818 - Visible Passes

Search period start: 23 October 2020 00:00
Search period end: 02 November 2020 00:00
Orbit: 776 x 798 km, 65.0° (Epoch: 22 October)

Date Brightness Start Highest point End Pass type
(mag) Time Alt. Az. Time Alt. Az. Time Alt. Az.
23 Oct 3.5 07:17:09 11° NNW 07:22:25 70° WSW 07:27:48 10° SSE visible
24 Oct 3.6 06:46:57 23° NNW 06:50:25 79° ENE 06:55:50 10° SSE visible
25 Oct 4.2 06:16:38 36° NNE 06:18:27 52° ENE 06:23:41 10° SE visible
26 Oct 4.8 05:46:12 34° ENE 05:46:30 34° ENE 05:51:20 10° SE visible
26 Oct 4.9 07:26:54 14° W 07:30:00 21° WSW 07:34:05 10° S visible
27 Oct 5.6 05:15:39 21° E 05:15:39 21° E 05:18:45 10° ESE visible
27 Oct 4.5 06:56:20 26° W 06:57:53 31° WSW 07:02:39 10° S visible
28 Oct 6.3 04:45:01 12° E 04:45:01 12° E 04:45:40 10° ESE visible
28 Oct 3.9 06:25:41 45° WSW 06:25:48 45° WSW 06:30:59 10° S visible
29 Oct 4.1 05:54:58 51° S 05:54:58 51° S 05:59:09 10° SSE visible
30 Oct 5.0 05:24:09 34° SSE 05:24:09 34° SSE 05:27:10 10° SSE visible
31 Oct 5.8 04:53:17 21° SE 04:53:17 21° SE 04:55:02 10° SE visible
31 Oct 5.5 06:33:56 14° SW 06:33:56 14° SW 06:36:23 10° SSW visible
01 Nov 6.4 04:22:20 12° SE 04:22:20 12° SE 04:22:43 10° SE visible
01 Nov 5.4 06:02:59 18° SW 06:02:59 18° SW 06:05:22 10° S visible
